sat.trackr.live / text

‹ back to catalog

STARLINK-31817

NORAD 59731 · 2024-090B

PAYLOAD ACTIVE UNKNOWN

§ Identity

Operator
Country
US
Launch date
2024-05-13
Launch site
AFETR
Launch vehicle
Mass (kg)
RCS (m²)

Purposes: comms

External: N2YO · Heavens-Above · Gunter

§ Orbital elements

Epoch: 2026-05-25T04:41:08.900160Z

Period
94.27 min
Inclination
42.9996°
Eccentricity
0.0000689
Mean motion
15.27578116 rev/d
Perigee alt
482.6 km
Apogee alt
483.5 km
Semi-major
6,861.2 km
B*
2.8068e-5
RAAN
111.1787°
Arg perigee
273.3761°
Mean anomaly
86.7012°
Rev number
11,514

§ Raw data

STARLINK-318171 59731U 24090B   26145.19524190  .00000511  00000+0  28068-4 0  99932 59731  42.9996 111.1787 0000689 273.3761  86.7012 15.27578116115143

JSON: /api/v1/satellites/59731 · /tle

For live sub-satellite position, see the globe view (requires WebGL).

§ Visibility from observer

Set your observer location to see the next 7 days of passes ≥ 10°. The values pass through the URL so the page stays shareable.

No JS? Fill the form by hand. The geolocation button needs JavaScript.